This is the latest recevied weather packets stored in our database for station/object DJ2DS-13. If no packets are shown the sender has not sent any weather packets the latest 1 day(s).
| Time | Temp. | Humidity | Pressure | Rain* | Wind** | Luminosity | Snow |
|---|---|---|---|---|---|---|---|
| 1777972223 | 10° C | 84% | 1011.5 hPa | 0 mm | 0.89 m/s, 37° | 150 W/m² | - |
| 1777971922 | 10° C | 84% | 1011.4 hPa | 0 mm | 0.89 m/s, 21° | 134 W/m² | - |
| 1777971621 | 10° C | 84% | 1011.3 hPa | 0 mm | 0.89 m/s, 42° | 120 W/m² | - |
| 1777971322 | 10° C | 84% | 1011.4 hPa | 0 mm | 0.89 m/s, 54° | 127 W/m² | - |
| 1777971022 | 10° C | 84% | 1011.3 hPa | 0 mm | 0.89 m/s, 38° | 111 W/m² | - |
| 1777970721 | 10° C | 84% | 1011.3 hPa | 0 mm | 1.34 m/s, 52° | 114 W/m² | - |
| 1777970419 | 10° C | 84% | 1011.4 hPa | 0 mm | 1.34 m/s, 35° | 134 W/m² | - |
| 1777970119 | 10° C | 83% | 1011.4 hPa | 0 mm | 0.89 m/s, 24° | 137 W/m² | - |
| 1777969817 | 10° C | 83% | 1011.3 hPa | 0 mm | 0.89 m/s, 27° | 149 W/m² | - |
| 1777969518 | 10° C | 83% | 1011.3 hPa | 0 mm | 0.89 m/s, 27° | 151 W/m² | - |
| 1777969216 | 10° C | 84% | 1011.3 hPa | 0 mm | 0.89 m/s, 0° | 150 W/m² | - |
| 1777968916 | 10° C | 83% | 1011.3 hPa | 0 mm | 0.89 m/s, 0° | 146 W/m² | - |
| 1777968615 | 10° C | 83% | 1011.2 hPa | 0 mm | 0.89 m/s, 20° | 148 W/m² | - |
| 1777968314 | 10° C | 83% | 1011.3 hPa | 0 mm | 0.89 m/s, 39° | 146 W/m² | - |
| 1777968013 | 10° C | 83% | 1011.3 hPa | 0 mm | 0.89 m/s, 0° | 141 W/m² | - |
| 1777967715 | 10° C | 83% | 1011.3 hPa | 0 mm | 0.89 m/s, 59° | 135 W/m² | - |
| 1777967414 | 10° C | 84% | 1011.2 hPa | 0 mm | 0.89 m/s, 345° | 137 W/m² | - |
| 1777966814 | 10° C | 84% | 1011.3 hPa | 0 mm | 0.45 m/s, 0° | 132 W/m² | - |
| 1777966514 | 9.44° C | 84% | 1011.2 hPa | 0 mm | 0.89 m/s, 17° | 135 W/m² | - |
| 1777966213 | 9.44° C | 84% | 1011.3 hPa | 0 mm | 0.89 m/s, 34° | 135 W/m² | - |
| 1777965913 | 9.44° C | 84% | 1011.3 hPa | 0 mm | 0.89 m/s, 38° | 135 W/m² | - |
| 1777965612 | 9.44° C | 84% | 1011.3 hPa | 0 mm | 0.89 m/s, 0° | 127 W/m² | - |
| 1777965311 | 9.44° C | 85% | 1011.4 hPa | 0 mm | 0.89 m/s, 34° | 127 W/m² | - |
| 1777965010 | 9.44° C | 85% | 1011.3 hPa | 0 mm | 0.89 m/s, 27° | 148 W/m² | - |
| 1777964710 | 9.44° C | 85% | 1011.2 hPa | 0 mm | 0.89 m/s, 42° | 171 W/m² | - |
* Rain latest hour (hover to see other rain measurements)
** Current wind speed in m/s (hover to see current wind gust speed)